Time,TemperatureF,DewpointF,PressureIn,WindDirection,WindDirectionDegrees,WindSpeedMPH,WindSpeedGustMPH,Humidity,HourlyPrecipIn,Conditions,Clouds,dailyrainin,SoftwareType,DateUTC
2013-02-01 00:03:00,49.5,34.4,30.29,WSW,242,5.8,5.8,56,0.00,CLR,,0.00,WeatherDisplay:10.37,2013-02-01 06:03:00,
2013-02-01 00:08:00,49.5,34.9,30.29,SW,233,5.8,5.8,57,0.00,CLR,,0.00,WeatherDisplay:10.37,2013-02-01 06:08:00,
2013-02-01 00:13:00,49.6,34.5,30.29,SW,221,5.8,5.8,56,0.00,CLR,,0.00,WeatherDisplay:10.37,2013-02-01 06:13:00,
2013-02-01 00:18:00,49.7,34.6,30.29,WSW,239,6.9,6.9,56,0.00,CLR,,0.00,WeatherDisplay:10.37,2013-02-01 06:18:00,
2013-02-01 00:23:00,49.6,34.5,30.29,SW,227,5.0,5.0,56,0.00,CLR,,0.00,WeatherDisplay:10.37,2013-02-01 06:23:00,
2013-02-01 00:28:00,49.5,34.9,30.29,SW,229,6.9,6.9,57,0.00,CLR,,0.00,WeatherDisplay:10.37,2013-02-01 06:28:00,
2013-02-01 00:33:00,49.5,34.9,30.29,SW,225,4.6,4.6,57,0.00,CLR,,0.00,WeatherDisplay:10.37,2013-02-01 06:33:00,
2013-02-01 00:38:00,49.4,34.3,30.29,WSW,238,6.9,6.9,56,0.00,CLR,,0.00,WeatherDisplay:10.37,2013-02-01 06:38:00,
2013-02-01 00:43:00,49.2,34.6,30.29,WSW,239,6.0,6.0,57,0.00,CLR,,0.00,WeatherDisplay:10.37,2013-02-01 06:43:00,
2013-02-01 00:48:00,49.1,34.5,30.28,WSW,240,6.9,6.9,57,0.00,CLR,,0.00,WeatherDisplay:10.37,2013-02-01 06:48:00,
2013-02-01 00:53:00,49.0,34.9,30.28,WSW,240,6.9,6.9,58,0.00,CLR,,0.00,WeatherDisplay:10.37,2013-02-01 06:53:00,
2013-02-01 00:58:00,49.0,35.3,30.28,SW,217,5.8,5.8,59,0.00,CLR,,0.00,WeatherDisplay:10.37,2013-02-01 06:58:00,
2013-02-01 01:03:00,48.9,35.2,30.28,SW,219,6.9,6.9,59,0.00,CLR,,0.00,WeatherDisplay:10.37,2013-02-01 07:03:00,
2013-02-01 01:08:00,48.9,35.6,30.29,SW,229,5.0,5.0,60,0.00,CLR,,0.00,WeatherDisplay:10.37,2013-02-01 07:08:00,
2013-02-01 01:13:00,49.0,35.7,30.28,WSW,239,7.0,7.0,60,0.00,CLR,,0.00,WeatherDisplay:10.37,2013-02-01 07:13:00,
2013-02-01 01:18:00,49.1,36.6,30.29,SW,222,6.9,6.9,62,0.00,CLR,,0.00,WeatherDisplay:10.37,2013-02-01 07:18:00,
2013-02-01 01:23:00,49.4,36.9,30.29,SW,215,6.9,6.9,62,0.00,CLR,,0.00,WeatherDisplay:10.37,2013-02-01 07:23:00,
2013-02-01 01:28:00,49.6,37.5,30.29,SW,219,5.8,5.8,63,0.00,CLR,,0.00,WeatherDisplay:10.37,2013-02-01 07:28:00,
2013-02-01 01:33:00,49.6,37.5,30.29,SW,218,4.6,4.6,63,0.00,CLR,,0.00,WeatherDisplay:10.37,2013-02-01 07:33:00,
2013-02-01 01:38:00,49.5,37.4,30.28,SW,219,3.5,3.5,63,0.00,CLR,,0.00,WeatherDisplay:10.37,2013-02-01 07:38:00,
2013-02-01 01:43:00,49.3,37.6,30.28,SW,226,4.6,4.6,64,0.00,CLR,,0.00,WeatherDisplay:10.37,2013-02-01 07:43:00,
2013-02-01 01:48:00,49.4,37.7,30.28,WSW,238,4.6,4.6,64,0.00,CLR,,0.00,WeatherDisplay:10.37,2013-02-01 07:48:00,
2013-02-01 01:53:00,49.6,38.3,30.28,WSW,242,4.6,4.6,65,0.00,CLR,,0.00,WeatherDisplay:10.37,2013-02-01 07:53:00,
2013-02-01 01:58:00,49.6,37.9,30.28,WSW,243,4.6,4.6,64,0.00,CLR,,0.00,WeatherDisplay:10.37,2013-02-01 07:58:00,
2013-02-01 02:03:00,49.7,38.4,30.28,WSW,242,4.6,4.6,65,0.00,CLR,,0.00,WeatherDisplay:10.37,2013-02-01 08:03:00,
2013-02-01 02:08:00,50.0,38.7,30.29,WSW,252,3.5,3.8,65,0.00,CLR,,0.00,WeatherDisplay:10.37,2013-02-01 08:08:00,
2013-02-01 02:13:00,50.1,38.8,30.29,West,260,5.8,5.8,65,0.00,CLR,,0.00,WeatherDisplay:10.37,2013-02-01 08:13:00,
2013-02-01 02:18:00,50.4,39.1,30.29,West,267,5.0,5.0,65,0.00,CLR,,0.00,WeatherDisplay:10.37,2013-02-01 08:18:00,
2013-02-01 02:23:00,50.6,39.3,30.29,West,260,4.6,4.7,65,0.00,CLR,,0.00,WeatherDisplay:10.37,2013-02-01 08:23:00,
2013-02-01 02:28:00,50.8,39.5,30.29,WSW,248,5.8,5.8,65,0.00,CLR,,0.00,WeatherDisplay:10.37,2013-02-01 08:28:00,
2013-02-01 02:33:00,50.9,39.5,30.28,WSW,252,4.6,4.6,65,0.00,CLR,,0.00,WeatherDisplay:10.37,2013-02-01 08:33:00,
2013-02-01 02:38:00,50.8,39.5,30.28,WSW,246,5.8,5.8,65,0.00,CLR,,0.00,WeatherDisplay:10.37,2013-02-01 08:38:00,
2013-02-01 02:43:00,50.7,39.7,30.28,West,259,5.0,5.0,66,0.00,CLR,,0.00,WeatherDisplay:10.37,2013-02-01 08:43:00,
2013-02-01 02:48:00,50.7,39.7,30.29,WSW,253,4.6,4.6,66,0.00,CLR,,0.00,WeatherDisplay:10.37,2013-02-01 08:48:00,
2013-02-01 02:53:00,50.9,39.9,30.29,West,263,4.6,4.6,66,0.00,CLR,,0.00,WeatherDisplay:10.37,2013-02-01 08:53:00,
2013-02-01 02:58:00,50.9,39.5,30.29,West,259,3.5,3.5,65,0.00,CLR,,0.00,WeatherDisplay:10.37,2013-02-01 08:58:00,
2013-02-01 03:03:00,50.7,39.4,30.29,West,270,4.6,4.6,65,0.00,CLR,,0.00,WeatherDisplay:10.37,2013-02-01 09:03:00,
2013-02-01 03:08:00,50.6,39.3,30.28,West,260,3.5,3.5,65,0.00,CLR,,0.00,WeatherDisplay:10.37,2013-02-01 09:08:00,
2013-02-01 03:13:00,50.4,38.7,30.29,West,276,2.3,2.3,64,0.00,CLR,,0.00,WeatherDisplay:10.37,2013-02-01 09:13:00,
2013-02-01 03:18:00,50.1,38.4,30.29,West,262,3.5,3.5,64,0.00,CLR,,0.00,WeatherDisplay:10.37,2013-02-01 09:18:00,
2013-02-01 03:23:00,49.8,38.5,30.29,West,271,3.5,3.5,65,0.00,CLR,,0.00,WeatherDisplay:10.37,2013-02-01 09:23:00,
2013-02-01 03:28:00,49.9,38.6,30.29,WNW,285,4.0,4.0,65,0.00,CLR,,0.00,WeatherDisplay:10.37,2013-02-01 09:28:00,
2013-02-01 03:33:00,50.3,39.0,30.29,WNW,283,3.5,3.5,65,0.00,CLR,,0.00,WeatherDisplay:10.37,2013-02-01 09:33:00,
2013-02-01 03:38:00,50.5,39.2,30.30,West,280,4.6,4.6,65,0.00,CLR,,0.00,WeatherDisplay:10.37,2013-02-01 09:38:00,
2013-02-01 03:43:00,50.7,39.4,30.30,WNW,288,3.5,3.5,65,0.00,CLR,,0.00,WeatherDisplay:10.37,2013-02-01 09:43:00,
2013-02-01 03:48:00,50.5,38.4,30.30,West,281,3.5,3.5,63,0.00,CLR,,0.00,WeatherDisplay:10.37,2013-02-01 09:48:00,
2013-02-01 03:53:00,50.6,39.3,30.30,West,275,3.5,3.5,65,0.00,CLR,,0.00,WeatherDisplay:10.37,2013-02-01 09:53:00,
2013-02-01 03:58:00,50.6,38.9,30.30,WNW,285,5.0,5.0,64,0.00,CLR,,0.00,WeatherDisplay:10.37,2013-02-01 09:58:00,
2013-02-01 04:03:00,50.0,38.3,30.30,WNW,298,3.5,3.5,64,0.00,CLR,,0.00,WeatherDisplay:10.37,2013-02-01 10:03:00,
2013-02-01 04:08:00,49.9,38.6,30.30,WNW,288,3.5,3.5,65,0.00,CLR,,0.00,WeatherDisplay:10.37,2013-02-01 10:08:00,
2013-02-01 04:13:00,49.6,38.3,30.30,West,273,2.3,2.3,65,0.00,CLR,,0.00,WeatherDisplay:10.37,2013-02-01 10:13:00,
2013-02-01 04:18:00,49.3,38.0,30.30,West,262,1.1,1.1,65,0.00,CLR,,0.00,WeatherDisplay:10.37,2013-02-01 10:18:00,
2013-02-01 04:23:00,49.0,38.1,30.31,WNW,283,2.3,2.3,66,0.00,CLR,,0.00,WeatherDisplay:10.37,2013-02-01 10:23:00,
2013-02-01 04:28:00,48.8,38.3,30.30,West,278,1.1,1.1,67,0.00,CLR,,0.00,WeatherDisplay:10.37,2013-02-01 10:28:00,
2013-02-01 04:33:00,48.6,38.1,30.30,West,275,1.1,1.1,67,0.00,CLR,,0.00,WeatherDisplay:10.37,2013-02-01 10:33:00,
2013-02-01 04:38:00,48.4,38.3,30.30,WNW,283,2.3,2.3,68,0.00,CLR,,0.00,WeatherDisplay:10.37,2013-02-01 10:38:00,
2013-02-01 04:43:00,48.6,38.5,30.30,West,259,2.3,2.3,68,0.00,CLR,,0.00,WeatherDisplay:10.37,2013-02-01 10:43:00,
2013-02-01 04:48:00,48.5,38.8,30.31,West,277,1.1,1.1,69,0.00,CLR,,0.00,WeatherDisplay:10.37,2013-02-01 10:48:00,
2013-02-01 04:53:00,48.4,38.7,30.31,WNW,297,0.0,0.0,69,0.00,CLR,,0.00,WeatherDisplay:10.37,2013-02-01 10:53:00,
2013-02-01 04:58:00,48.3,38.6,30.31,WNW,293,1.1,1.1,69,0.00,CLR,,0.00,WeatherDisplay:10.37,2013-02-01 10:58:00,
2013-02-01 05:03:00,48.3,39.0,30.31,WNW,288,0.0,0.0,70,0.00,CLR,,0.00,WeatherDisplay:10.37,2013-02-01 11:03:00,
2013-02-01 05:08:00,48.4,39.1,30.30,WNW,288,0.0,0.0,70,0.00,CLR,,0.00,WeatherDisplay:10.37,2013-02-01 11:08:00,
2013-02-01 05:13:00,48.1,38.8,30.30,WNW,288,0.0,0.0,70,0.00,CLR,,0.00,WeatherDisplay:10.37,2013-02-01 11:13:00,
2013-02-01 05:18:00,47.7,38.8,30.30,WNW,288,0.0,0.0,71,0.00,CLR,,0.00,WeatherDisplay:10.37,2013-02-01 11:18:00,
2013-02-01 05:23:00,47.2,38.3,30.31,WNW,288,0.0,0.0,71,0.00,CLR,,0.00,WeatherDisplay:10.37,2013-02-01 11:23:00,
2013-02-01 05:28:00,46.7,38.1,30.30,WNW,288,0.0,0.0,72,0.00,CLR,,0.00,WeatherDisplay:10.37,2013-02-01 11:28:00,
2013-02-01 05:33:00,46.6,38.4,30.30,WNW,288,0.0,0.0,73,0.00,CLR,,0.00,WeatherDisplay:10.37,2013-02-01 11:33:00,
2013-02-01 05:38:00,46.5,38.3,30.30,WNW,288,0.0,0.0,73,0.00,CLR,,0.00,WeatherDisplay:10.37,2013-02-01 11:38:00,
2013-02-01 05:43:00,46.5,38.3,30.30,WNW,288,0.0,0.0,73,0.00,CLR,,0.00,WeatherDisplay:10.37,2013-02-01 11:43:00,
2013-02-01 05:48:00,46.8,38.9,30.31,WNW,288,0.0,0.0,74,0.00,CLR,,0.00,WeatherDisplay:10.37,2013-02-01 11:48:00,
2013-02-01 05:53:00,46.8,38.6,30.30,WNW,288,0.0,0.0,73,0.00,CLR,,0.00,WeatherDisplay:10.37,2013-02-01 11:53:00,
2013-02-01 05:58:00,46.9,38.7,30.30,WNW,288,0.0,0.0,73,0.00,CLR,,0.00,WeatherDisplay:10.37,2013-02-01 11:58:00,
2013-02-01 06:03:00,46.9,38.7,30.30,WNW,288,0.0,0.0,73,0.00,CLR,,0.00,WeatherDisplay:10.37,2013-02-01 12:03:00,
2013-02-01 06:08:00,46.9,38.7,30.30,WNW,288,0.0,0.0,73,0.00,CLR,,0.00,WeatherDisplay:10.37,2013-02-01 12:08:00,
2013-02-01 06:13:00,46.8,38.6,30.30,WNW,288,0.0,0.0,73,0.00,CLR,,0.00,WeatherDisplay:10.37,2013-02-01 12:13:00,
2013-02-01 06:18:00,46.9,38.7,30.30,WNW,288,0.0,0.0,73,0.00,CLR,,0.00,WeatherDisplay:10.37,2013-02-01 12:18:00,
2013-02-01 06:23:00,47.0,39.1,30.30,WNW,288,0.0,0.0,74,0.00,CLR,,0.00,WeatherDisplay:10.37,2013-02-01 12:23:00,
2013-02-01 06:28:00,47.2,39.3,30.30,WNW,288,0.0,0.0,74,0.00,CLR,,0.00,WeatherDisplay:10.37,2013-02-01 12:28:00,
2013-02-01 06:33:00,47.3,39.4,30.30,WNW,288,0.0,0.0,74,0.00,CLR,,0.00,WeatherDisplay:10.37,2013-02-01 12:33:00,
2013-02-01 06:38:00,47.3,39.1,30.31,WNW,288,0.0,0.0,73,0.00,CLR,,0.00,WeatherDisplay:10.37,2013-02-01 12:38:00,
2013-02-01 06:43:00,47.3,39.1,30.31,WNW,288,1.1,1.1,73,0.00,CLR,,0.00,WeatherDisplay:10.37,2013-02-01 12:43:00,
2013-02-01 06:48:00,47.3,39.1,30.31,WNW,288,0.0,0.0,73,0.00,CLR,,0.00,WeatherDisplay:10.37,2013-02-01 12:48:00,
2013-02-01 06:53:00,46.7,38.5,30.31,WNW,288,0.0,0.0,73,0.00,CLR,,0.00,WeatherDisplay:10.37,2013-02-01 12:53:00,
2013-02-01 06:58:00,45.9,38.4,30.32,WNW,288,0.0,0.0,75,0.00,CLR,,0.00,WeatherDisplay:10.37,2013-02-01 12:58:00,
2013-02-01 07:03:00,45.0,37.9,30.32,WNW,288,0.0,0.0,76,0.00,CLR,,0.00,WeatherDisplay:10.37,2013-02-01 13:03:00,
2013-02-01 07:08:00,44.2,37.4,30.32,WNW,288,0.0,0.0,77,0.00,CLR,,0.00,WeatherDisplay:10.37,2013-02-01 13:08:00,
2013-02-01 07:13:00,44.1,38.0,30.33,WNW,288,0.0,0.0,79,0.00,CLR,,0.00,WeatherDisplay:10.37,2013-02-01 13:13:00,
2013-02-01 07:18:00,45.1,39.0,30.33,NW,316,2.3,2.3,79,0.00,CLR,,0.00,WeatherDisplay:10.37,2013-02-01 13:18:00,
2013-02-01 07:23:00,45.9,38.8,30.33,NW,316,0.0,0.0,76,0.00,CLR,,0.00,WeatherDisplay:10.37,2013-02-01 13:23:00,
2013-02-01 07:28:00,45.6,38.5,30.33,NW,316,0.0,0.0,76,0.00,CLR,,0.00,WeatherDisplay:10.37,2013-02-01 13:28:00,
2013-02-01 07:33:00,45.1,38.0,30.34,NW,316,0.0,0.0,76,0.00,CLR,,0.00,WeatherDisplay:10.37,2013-02-01 13:33:00,
2013-02-01 07:38:00,44.8,38.4,30.34,NW,316,0.0,0.0,78,0.00,CLR,,0.00,WeatherDisplay:10.37,2013-02-01 13:38:00,
2013-02-01 07:43:00,45.3,38.8,30.34,NW,318,1.1,1.1,78,0.00,CLR,,0.00,WeatherDisplay:10.37,2013-02-01 13:43:00,
2013-02-01 07:48:00,45.6,38.8,30.34,NW,318,1.1,0.0,77,0.00,CLR,,0.00,WeatherDisplay:10.37,2013-02-01 13:48:00,
2013-02-01 07:53:00,45.7,38.9,30.34,NW,318,0.0,0.0,77,0.00,CLR,,0.00,WeatherDisplay:10.37,2013-02-01 13:53:00,
2013-02-01 07:58:00,45.8,39.0,30.34,NW,318,0.0,0.0,77,0.00,CLR,,0.00,WeatherDisplay:10.37,2013-02-01 13:58:00,
2013-02-01 08:03:00,46.2,39.4,30.34,NW,318,0.0,0.0,77,0.00,CLR,,0.00,WeatherDisplay:10.37,2013-02-01 14:03:00,
2013-02-01 08:08:00,46.6,38.8,30.34,NW,318,0.0,0.0,74,0.00,CLR,,0.00,WeatherDisplay:10.37,2013-02-01 14:08:00,
2013-02-01 08:13:00,46.1,38.6,30.34,NW,316,0.0,0.0,75,0.00,CLR,,0.00,WeatherDisplay:10.37,2013-02-01 14:13:00,
2013-02-01 08:18:00,46.4,39.2,30.34,NW,309,0.0,0.0,76,0.00,CLR,,0.00,WeatherDisplay:10.37,2013-02-01 14:18:00,
2013-02-01 08:23:00,46.8,40.0,30.34,NW,309,0.0,0.0,77,0.00,CLR,,0.00,WeatherDisplay:10.37,2013-02-01 14:23:00,
2013-02-01 08:29:00,48.3,41.1,30.34,NE,44,2.3,2.3,76,0.00,CLR,,0.00,WeatherDisplay:10.37,2013-02-01 14:29:00,
2013-02-01 08:34:00,49.0,41.1,30.34,NNE,32,6.9,6.9,74,0.00,CLR,,0.00,WeatherDisplay:10.37,2013-02-01 14:34:00,
2013-02-01 08:40:00,48.6,40.7,30.35,NE,41,4.6,4.6,74,0.00,CLR,,0.00,WeatherDisplay:10.37,2013-02-01 14:40:00,
2013-02-01 08:45:00,48.9,41.3,30.35,NE,36,3.5,3.5,75,0.00,CLR,,0.00,WeatherDisplay:10.37,2013-02-01 14:45:00,
2013-02-01 08:50:00,49.6,41.7,30.35,ENE,72,3.5,3.5,74,0.00,CLR,,0.00,WeatherDisplay:10.37,2013-02-01 14:50:00,
2013-02-01 08:55:00,50.5,42.2,30.35,NE,51,4.6,4.6,73,0.00,CLR,,0.00,WeatherDisplay:10.37,2013-02-01 14:55:00,
2013-02-01 09:00:00,51.0,42.3,30.35,ENE,60,3.5,3.5,72,0.00,CLR,,0.00,WeatherDisplay:10.37,2013-02-01 15:00:00,
2013-02-01 09:05:00,51.8,42.7,30.35,NE,54,2.3,2.3,71,0.00,CLR,,0.00,WeatherDisplay:10.37,2013-02-01 15:05:00,
2013-02-01 09:10:00,52.7,43.2,30.35,NNE,30,2.0,2.0,70,0.00,CLR,,0.00,WeatherDisplay:10.37,2013-02-01 15:10:00,
2013-02-01 09:15:00,53.4,42.7,30.35,NNE,20,3.5,3.9,67,0.00,CLR,,0.00,WeatherDisplay:10.37,2013-02-01 15:15:00,
2013-02-01 09:20:00,53.8,42.7,30.35,NE,50,4.6,4.6,66,0.00,CLR,,0.00,WeatherDisplay:10.37,2013-02-01 15:20:00,
2013-02-01 09:25:00,54.3,42.8,30.35,ENE,65,3.5,3.5,65,0.00,CLR,,0.00,WeatherDisplay:10.37,2013-02-01 15:25:00,
2013-02-01 09:30:00,54.5,43.4,30.35,ENE,69,3.5,3.5,66,0.00,CLR,,0.00,WeatherDisplay:10.37,2013-02-01 15:30:00,
2013-02-01 09:35:00,55.2,44.0,30.35,ENE,72,3.5,3.5,66,0.00,CLR,,0.00,WeatherDisplay:10.37,2013-02-01 15:35:00,
2013-02-01 09:40:00,56.0,44.0,30.35,ENE,70,3.5,3.5,64,0.00,CLR,,0.00,WeatherDisplay:10.37,2013-02-01 15:40:00,
2013-02-01 09:45:00,56.5,44.5,30.35,SE,131,3.0,3.0,64,0.00,CLR,,0.00,WeatherDisplay:10.37,2013-02-01 15:45:00,
2013-02-01 09:50:00,56.9,44.8,30.35,East,85,1.1,0.0,64,0.00,CLR,,0.00,WeatherDisplay:10.37,2013-02-01 15:50:00,
2013-02-01 09:55:00,57.8,44.9,30.35,South,170,0.0,0.0,62,0.00,CLR,,0.00,WeatherDisplay:10.37,2013-02-01 15:55:00,
2013-02-01 10:00:00,58.7,45.3,30.35,ESE,122,1.1,0.0,61,0.00,CLR,,0.00,WeatherDisplay:10.37,2013-02-01 16:00:00,
2013-02-01 10:05:00,59.2,45.3,30.35,SE,134,2.3,2.3,60,0.00,CLR,,0.00,WeatherDisplay:10.37,2013-02-01 16:05:00,
2013-02-01 10:10:00,59.5,45.6,30.35,ENE,72,3.5,3.5,60,0.00,CLR,,0.00,WeatherDisplay:10.37,2013-02-01 16:10:00,
2013-02-01 10:15:00,59.8,45.9,30.35,SE,135,2.3,2.3,60,0.00,CLR,,0.00,WeatherDisplay:10.37,2013-02-01 16:15:00,
2013-02-01 10:20:00,60.5,46.5,30.35,SE,131,7.0,7.0,60,0.00,CLR,,0.00,WeatherDisplay:10.37,2013-02-01 16:20:00,
2013-02-01 10:25:00,60.5,46.5,30.35,SSE,154,5.8,5.8,60,0.00,CLR,,0.00,WeatherDisplay:10.37,2013-02-01 16:25:00,
2013-02-01 10:30:00,61.0,46.6,30.34,SE,129,9.2,9.2,59,0.00,CLR,,0.00,WeatherDisplay:10.37,2013-02-01 16:30:00,
2013-02-01 10:35:00,61.2,46.8,30.35,SSW,193,10.4,10.4,59,0.00,CLR,,0.00,WeatherDisplay:10.37,2013-02-01 16:35:00,
2013-02-01 10:40:00,61.8,46.4,30.34,SSW,205,10.4,10.4,57,0.00,CLR,,0.00,WeatherDisplay:10.37,2013-02-01 16:40:00,
2013-02-01 10:45:00,61.8,46.4,30.34,SE,125,5.8,5.8,57,0.00,CLR,,0.00,WeatherDisplay:10.37,2013-02-01 16:45:00,
2013-02-01 10:50:00,62.1,46.2,30.34,SSE,164,6.9,6.9,56,0.00,CLR,,0.00,WeatherDisplay:10.37,2013-02-01 16:50:00,
2013-02-01 10:55:00,62.2,45.8,30.34,SSE,153,10.0,10.0,55,0.00,CLR,,0.00,WeatherDisplay:10.37,2013-02-01 16:55:00,
2013-02-01 11:01:00,62.5,45.6,30.34,SSE,150,10.4,10.4,54,0.00,CLR,,0.00,WeatherDisplay:10.37,2013-02-01 17:01:00,
2013-02-01 11:06:00,63.0,45.6,30.33,South,179,9.2,9.2,53,0.00,CLR,,0.00,WeatherDisplay:10.37,2013-02-01 17:06:00,
2013-02-01 11:11:00,63.9,44.9,30.33,South,179,9.0,9.0,50,0.00,CLR,,0.00,WeatherDisplay:10.37,2013-02-01 17:11:00,
2013-02-01 11:16:00,64.1,44.0,30.33,SSW,212,9.2,9.2,48,0.00,CLR,,0.00,WeatherDisplay:10.37,2013-02-01 17:16:00,
2013-02-01 11:21:00,64.5,43.3,30.33,SSW,194,11.5,11.5,46,0.00,CLR,,0.00,WeatherDisplay:10.37,2013-02-01 17:21:00,
2013-02-01 11:26:00,64.6,43.3,30.33,South,177,15.0,15.0,46,0.00,CLR,,0.00,WeatherDisplay:10.37,2013-02-01 17:26:00,
2013-02-01 11:31:00,64.8,43.5,30.32,SSW,198,9.2,9.2,46,0.00,CLR,,0.00,WeatherDisplay:10.37,2013-02-01 17:31:00,
2013-02-01 11:36:00,65.1,43.8,30.32,South,174,11.5,11.5,46,0.00,CLR,,0.00,WeatherDisplay:10.37,2013-02-01 17:36:00,
2013-02-01 11:41:00,65.4,45.2,30.32,SE,144,10.4,10.4,48,0.00,CLR,,0.00,WeatherDisplay:10.37,2013-02-01 17:41:00,
2013-02-01 11:46:00,65.6,44.8,30.32,SSW,207,10.0,10.0,47,0.00,CLR,,0.00,WeatherDisplay:10.37,2013-02-01 17:46:00,
2013-02-01 11:51:00,65.5,44.7,30.32,SSW,212,11.5,11.5,47,0.00,CLR,,0.00,WeatherDisplay:10.37,2013-02-01 17:51:00,
2013-02-01 11:56:00,65.6,45.4,30.31,SSW,202,7.0,7.0,48,0.00,CLR,,0.00,WeatherDisplay:10.37,2013-02-01 17:56:00,
2013-02-01 12:01:00,66.2,44.2,30.31,South,191,8.1,8.6,45,0.00,CLR,,0.00,WeatherDisplay:10.37,2013-02-01 18:01:00,
2013-02-01 12:06:00,66.4,43.8,30.31,SE,139,9.2,9.2,44,0.00,CLR,,0.00,WeatherDisplay:10.37,2013-02-01 18:06:00,
2013-02-01 12:11:00,66.4,42.0,30.30,SSW,212,10.4,10.4,41,0.00,CLR,,0.00,WeatherDisplay:10.37,2013-02-01 18:11:00,
2013-02-01 12:16:00,66.9,41.1,30.30,SSE,164,17.3,17.3,39,0.00,CLR,,0.00,WeatherDisplay:10.37,2013-02-01 18:16:00,
2013-02-01 12:21:00,67.1,40.6,30.30,SSE,153,9.2,9.2,38,0.00,CLR,,0.00,WeatherDisplay:10.37,2013-02-01 18:21:00,
2013-02-01 12:26:00,67.2,40.7,30.29,SSE,165,17.3,17.3,38,0.00,CLR,,0.00,WeatherDisplay:10.37,2013-02-01 18:26:00,
2013-02-01 12:31:00,67.5,40.3,30.29,SSE,148,10.4,10.4,37,0.00,CLR,,0.00,WeatherDisplay:10.37,2013-02-01 18:31:00,
2013-02-01 12:36:00,68.1,38.7,30.29,SSE,160,18.4,18.4,34,0.00,CLR,,0.00,WeatherDisplay:10.37,2013-02-01 18:36:00,
2013-02-01 12:41:00,68.1,38.7,30.29,SSE,167,12.7,12.7,34,0.00,CLR,,0.00,WeatherDisplay:10.37,2013-02-01 18:41:00,
2013-02-01 12:46:00,68.3,38.8,30.28,SSE,151,13.8,13.8,34,0.00,CLR,,0.00,WeatherDisplay:10.37,2013-02-01 18:46:00,
2013-02-01 12:51:00,68.4,39.7,30.28,SSW,193,8.1,8.1,35,0.00,CLR,,0.00,WeatherDisplay:10.37,2013-02-01 18:51:00,
2013-02-01 12:56:00,68.8,40.0,30.27,SSE,153,17.3,17.3,35,0.00,CLR,,0.00,WeatherDisplay:10.37,2013-02-01 18:56:00,
2013-02-01 13:01:00,68.8,39.3,30.27,SSW,208,20.7,20.7,34,0.00,CLR,,0.00,WeatherDisplay:10.37,2013-02-01 19:01:00,
2013-02-01 13:06:00,68.9,39.4,30.27,SE,146,11.5,11.5,34,0.00,CLR,,0.00,WeatherDisplay:10.37,2013-02-01 19:06:00,
2013-02-01 13:11:00,69.1,38.0,30.26,SSE,150,16.1,16.1,32,0.00,CLR,,0.00,WeatherDisplay:10.37,2013-02-01 19:11:00,
2013-02-01 13:16:00,69.4,37.4,30.26,SSE,166,18.4,18.4,31,0.00,CLR,,0.00,WeatherDisplay:10.37,2013-02-01 19:16:00,
2013-02-01 13:21:00,69.3,38.9,30.26,ESE,121,7.0,7.0,33,0.00,CLR,,0.00,WeatherDisplay:10.37,2013-02-01 19:21:00,
2013-02-01 13:26:00,69.5,38.3,30.26,SSE,152,17.3,17.3,32,0.00,CLR,,0.00,WeatherDisplay:10.37,2013-02-01 19:26:00,
2013-02-01 13:31:00,69.3,40.5,30.25,ESE,114,19.6,19.6,35,0.00,CLR,,0.00,WeatherDisplay:10.37,2013-02-01 19:31:00,
2013-02-01 13:36:00,69.5,41.4,30.25,SE,128,14.0,14.0,36,0.00,CLR,,0.00,WeatherDisplay:10.37,2013-02-01 19:36:00,
2013-02-01 13:41:00,69.8,40.2,30.25,SSE,160,10.4,10.4,34,0.00,CLR,,0.00,WeatherDisplay:10.37,2013-02-01 19:41:00,
2013-02-01 13:46:00,69.9,37.0,30.24,South,174,17.3,17.3,30,0.00,CLR,,0.00,WeatherDisplay:10.37,2013-02-01 19:46:00,
2013-02-01 13:51:00,69.9,37.9,30.23,SE,145,15.0,15.0,31,0.00,CLR,,0.00,WeatherDisplay:10.37,2013-02-01 19:51:00,
2013-02-01 13:56:00,70.4,36.6,30.24,SE,146,21.9,21.9,29,0.00,CLR,,0.00,WeatherDisplay:10.37,2013-02-01 19:56:00,
2013-02-01 14:01:00,70.1,36.3,30.23,SSE,160,16.1,16.1,29,0.00,CLR,,0.00,WeatherDisplay:10.37,2013-02-01 20:01:00,
2013-02-01 14:06:00,69.9,36.2,30.23,SE,125,17.3,17.3,29,0.00,CLR,,0.00,WeatherDisplay:10.37,2013-02-01 20:06:00,
2013-02-01 14:11:00,70.2,36.4,30.23,ESE,107,19.6,19.6,29,0.00,CLR,,0.00,WeatherDisplay:10.37,2013-02-01 20:11:00,
2013-02-01 14:16:00,70.5,36.7,30.23,SSE,153,13.0,13.1,29,0.00,CLR,,0.00,WeatherDisplay:10.37,2013-02-01 20:16:00,
2013-02-01 14:21:00,70.8,37.0,30.23,South,172,18.4,18.4,29,0.00,CLR,,0.00,WeatherDisplay:10.37,2013-02-01 20:21:00,
2013-02-01 14:26:00,70.9,37.0,30.22,SE,134,18.4,18.4,29,0.00,CLR,,0.00,WeatherDisplay:10.37,2013-02-01 20:26:00,
2013-02-01 14:31:00,70.7,36.9,30.22,SSE,163,18.0,18.0,29,0.00,CLR,,0.00,WeatherDisplay:10.37,2013-02-01 20:31:00,
2013-02-01 14:36:00,70.5,37.6,30.22,SSE,166,11.5,11.5,30,0.00,CLR,,0.00,WeatherDisplay:10.37,2013-02-01 20:36:00,
2013-02-01 14:41:00,71.1,37.2,30.22,SSE,160,20.7,20.7,29,0.00,CLR,,0.00,WeatherDisplay:10.37,2013-02-01 20:41:00,
2013-02-01 14:46:00,70.8,37.8,30.21,SSW,212,13.8,13.8,30,0.00,CLR,,0.00,WeatherDisplay:10.37,2013-02-01 20:46:00,
2013-02-01 14:51:00,70.7,36.9,30.21,SSE,166,21.9,21.9,29,0.00,CLR,,0.00,WeatherDisplay:10.37,2013-02-01 20:51:00,
2013-02-01 14:56:00,70.9,37.9,30.21,South,190,15.0,15.0,30,0.00,CLR,,0.00,WeatherDisplay:10.37,2013-02-01 20:56:00,
2013-02-01 15:01:00,70.8,37.0,30.21,South,174,24.2,24.2,29,0.00,CLR,,0.00,WeatherDisplay:10.37,2013-02-01 21:01:00,
2013-02-01 15:06:00,71.1,38.1,30.21,ESE,115,19.6,19.6,30,0.00,CLR,,0.00,WeatherDisplay:10.37,2013-02-01 21:06:00,
2013-02-01 15:11:00,71.2,39.0,30.21,SSE,147,12.7,12.7,31,0.00,CLR,,0.00,WeatherDisplay:10.37,2013-02-01 21:11:00,
2013-02-01 15:16:00,71.2,38.2,30.21,SSE,164,24.2,24.2,30,0.00,CLR,,0.00,WeatherDisplay:10.37,2013-02-01 21:16:00,
2013-02-01 15:21:00,71.1,38.9,30.20,SSE,148,11.5,13.9,31,0.00,CLR,,0.00,WeatherDisplay:10.37,2013-02-01 21:21:00,
2013-02-01 15:26:00,71.3,39.1,30.20,SSE,156,16.1,16.1,31,0.00,CLR,,0.00,WeatherDisplay:10.37,2013-02-01 21:26:00,
2013-02-01 15:31:00,71.4,38.3,30.20,SSE,150,11.5,11.5,30,0.00,CLR,,0.00,WeatherDisplay:10.37,2013-02-01 21:31:00,
2013-02-01 15:36:00,71.5,39.3,30.20,SSE,160,17.3,17.3,31,0.00,CLR,,0.00,WeatherDisplay:10.37,2013-02-01 21:36:00,
2013-02-01 15:41:00,71.4,39.2,30.20,SSW,212,11.5,11.5,31,0.00,CLR,,0.00,WeatherDisplay:10.37,2013-02-01 21:41:00,
2013-02-01 15:46:00,71.7,39.4,30.20,SE,141,13.8,13.8,31,0.00,CLR,,0.00,WeatherDisplay:10.37,2013-02-01 21:46:00,
2013-02-01 15:51:00,71.5,39.3,30.20,SSE,156,15.0,16.0,31,0.00,CLR,,0.00,WeatherDisplay:10.37,2013-02-01 21:51:00,
2013-02-01 15:56:00,71.2,39.0,30.20,SSE,160,13.8,13.8,31,0.00,CLR,,0.00,WeatherDisplay:10.37,2013-02-01 21:56:00,
2013-02-01 16:01:00,71.2,38.2,30.19,SE,129,18.4,18.4,30,0.00,CLR,,0.00,WeatherDisplay:10.37,2013-02-01 22:01:00,
2013-02-01 16:06:00,71.3,37.4,30.19,South,174,18.4,18.4,29,0.00,CLR,,0.00,WeatherDisplay:10.37,2013-02-01 22:06:00,
2013-02-01 16:11:00,71.6,38.5,30.19,SSE,153,11.5,11.5,30,0.00,CLR,,0.00,WeatherDisplay:10.37,2013-02-01 22:11:00,
2013-02-01 16:16:00,71.6,38.5,30.20,SSE,150,23.0,23.0,30,0.00,CLR,,0.00,WeatherDisplay:10.37,2013-02-01 22:16:00,
2013-02-01 16:21:00,71.4,38.3,30.20,SSE,150,19.6,19.6,30,0.00,CLR,,0.00,WeatherDisplay:10.37,2013-02-01 22:21:00,
2013-02-01 16:26:00,71.2,38.2,30.19,SSE,159,13.8,13.8,30,0.00,CLR,,0.00,WeatherDisplay:10.37,2013-02-01 22:26:00,
2013-02-01 16:31:00,71.6,38.5,30.19,SSE,166,13.8,13.8,30,0.00,CLR,,0.00,WeatherDisplay:10.37,2013-02-01 22:31:00,
2013-02-01 16:36:00,71.4,39.2,30.20,SE,138,14.0,14.0,31,0.00,CLR,,0.00,WeatherDisplay:10.37,2013-02-01 22:36:00,
2013-02-01 16:41:00,71.3,38.2,30.19,East,101,11.5,13.4,30,0.00,CLR,,0.00,WeatherDisplay:10.37,2013-02-01 22:41:00,
2013-02-01 16:46:00,71.1,38.9,30.19,SSE,150,16.1,16.1,31,0.00,CLR,,0.00,WeatherDisplay:10.37,2013-02-01 22:46:00,
2013-02-01 16:51:00,71.0,38.8,30.19,SSE,156,17.3,17.3,31,0.00,CLR,,0.00,WeatherDisplay:10.37,2013-02-01 22:51:00,
2013-02-01 16:56:00,70.8,38.7,30.19,South,173,17.3,17.3,31,0.00,CLR,,0.00,WeatherDisplay:10.37,2013-02-01 22:56:00,
2013-02-01 17:01:00,70.8,38.7,30.19,SE,134,12.7,12.7,31,0.00,CLR,,0.00,WeatherDisplay:10.37,2013-02-01 23:01:00,
2013-02-01 17:06:00,70.7,38.6,30.19,ESE,111,15.0,15.0,31,0.00,CLR,,0.00,WeatherDisplay:10.37,2013-02-01 23:06:00,
2013-02-01 17:11:00,70.4,39.1,30.19,SE,146,11.5,11.5,32,0.00,CLR,,0.00,WeatherDisplay:10.37,2013-02-01 23:11:00,
2013-02-01 17:16:00,70.2,38.1,30.18,SE,136,15.0,15.0,31,0.00,CLR,,0.00,WeatherDisplay:10.37,2013-02-01 23:16:00,
2013-02-01 17:21:00,69.9,37.9,30.18,SE,140,10.4,10.4,31,0.00,CLR,,0.00,WeatherDisplay:10.37,2013-02-01 23:21:00,
2013-02-01 17:26:00,69.6,38.4,30.19,SE,128,11.5,11.5,32,0.00,CLR,,0.00,WeatherDisplay:10.37,2013-02-01 23:26:00,
2013-02-01 17:31:00,69.4,37.4,30.19,SE,138,11.5,11.5,31,0.00,CLR,,0.00,WeatherDisplay:10.37,2013-02-01 23:31:00,
2013-02-01 17:36:00,69.2,38.1,30.19,SSE,162,12.7,12.7,32,0.00,CLR,,0.00,WeatherDisplay:10.37,2013-02-01 23:36:00,
2013-02-01 17:41:00,69.0,37.9,30.19,SSE,156,11.5,11.5,32,0.00,CLR,,0.00,WeatherDisplay:10.37,2013-02-01 23:41:00,
2013-02-01 17:46:00,68.5,37.5,30.19,SSE,149,11.5,11.5,32,0.00,CLR,,0.00,WeatherDisplay:10.37,2013-02-01 23:46:00,
2013-02-01 17:51:00,68.1,37.1,30.19,SE,129,12.7,12.7,32,0.00,CLR,,0.00,WeatherDisplay:10.37,2013-02-01 23:51:00,
2013-02-01 17:56:00,67.7,37.5,30.19,ESE,120,12.7,12.7,33,0.00,CLR,,0.00,WeatherDisplay:10.37,2013-02-01 23:56:00,
2013-02-01 18:01:00,67.3,37.2,30.18,SE,140,11.5,11.5,33,0.00,CLR,,0.00,WeatherDisplay:10.37,2013-02-02 00:01:00,
2013-02-01 18:06:00,66.9,37.6,30.19,SE,126,10.4,10.4,34,0.00,CLR,,0.00,WeatherDisplay:10.37,2013-02-02 00:06:00,
2013-02-01 18:11:00,66.6,37.3,30.18,SE,146,9.2,9.2,34,0.00,CLR,,0.00,WeatherDisplay:10.37,2013-02-02 00:11:00,
2013-02-01 18:16:00,66.1,37.6,30.18,SE,125,6.9,6.9,35,0.00,CLR,,0.00,WeatherDisplay:10.37,2013-02-02 00:16:00,
2013-02-01 18:21:00,65.5,37.8,30.18,SE,140,6.9,6.9,36,0.00,CLR,,0.00,WeatherDisplay:10.37,2013-02-02 00:21:00,
2013-02-01 18:26:00,65.1,37.5,30.18,SE,136,9.2,9.2,36,0.00,CLR,,0.00,WeatherDisplay:10.37,2013-02-02 00:26:00,
2013-02-01 18:31:00,64.9,37.3,30.19,SSE,153,6.9,6.9,36,0.00,CLR,,0.00,WeatherDisplay:10.37,2013-02-02 00:31:00,
2013-02-01 18:36:00,64.6,37.0,30.19,SSE,147,8.1,8.1,36,0.00,CLR,,0.00,WeatherDisplay:10.37,2013-02-02 00:36:00,
2013-02-01 18:41:00,64.3,37.5,30.19,SE,132,8.1,8.1,37,0.00,CLR,,0.00,WeatherDisplay:10.37,2013-02-02 00:41:00,
2013-02-01 18:46:00,63.8,37.0,30.19,ESE,108,9.2,9.2,37,0.00,CLR,,0.00,WeatherDisplay:10.37,2013-02-02 00:46:00,
2013-02-01 18:51:00,63.5,36.0,30.19,SE,146,10.4,10.4,36,0.00,CLR,,0.00,WeatherDisplay:10.37,2013-02-02 00:51:00,
2013-02-01 18:57:00,63.2,35.8,30.19,East,80,12.7,12.7,36,0.00,CLR,,0.00,WeatherDisplay:10.37,2013-02-02 00:57:00,
2013-02-01 19:02:00,63.3,35.9,30.19,SE,134,16.1,16.1,36,0.00,CLR,,0.00,WeatherDisplay:10.37,2013-02-02 01:02:00,
2013-02-01 19:07:00,63.0,35.6,30.19,ESE,103,11.5,11.5,36,0.00,CLR,,0.00,WeatherDisplay:10.37,2013-02-02 01:07:00,
2013-02-01 19:12:00,62.7,35.3,30.19,SE,134,11.5,11.5,36,0.00,CLR,,0.00,WeatherDisplay:10.37,2013-02-02 01:12:00,
2013-02-01 19:17:00,62.5,35.9,30.19,SE,128,17.3,17.3,37,0.00,CLR,,0.00,WeatherDisplay:10.37,2013-02-02 01:17:00,
2013-02-01 19:22:00,62.4,35.8,30.19,SSE,149,16.1,16.1,37,0.00,CLR,,0.00,WeatherDisplay:10.37,2013-02-02 01:22:00,
2013-02-01 19:27:00,62.1,36.2,30.20,SE,133,12.7,12.7,38,0.00,CLR,,0.00,WeatherDisplay:10.37,2013-02-02 01:27:00,
2013-02-01 19:32:00,61.9,36.0,30.20,SE,139,12.7,12.7,38,0.00,CLR,,0.00,WeatherDisplay:10.37,2013-02-02 01:32:00,
2013-02-01 19:37:00,61.5,36.3,30.20,SSE,166,11.5,11.5,39,0.00,CLR,,0.00,WeatherDisplay:10.37,2013-02-02 01:37:00,
2013-02-01 19:42:00,61.3,36.8,30.20,SE,135,11.5,11.5,40,0.00,CLR,,0.00,WeatherDisplay:10.37,2013-02-02 01:42:00,
2013-02-01 19:47:00,60.9,37.0,30.20,SE,142,13.8,13.8,41,0.00,CLR,,0.00,WeatherDisplay:10.37,2013-02-02 01:47:00,
2013-02-01 19:52:00,60.8,36.9,30.20,SE,143,13.8,13.8,41,0.00,CLR,,0.00,WeatherDisplay:10.37,2013-02-02 01:52:00,
2013-02-01 19:57:00,60.8,37.5,30.20,SE,129,16.1,16.1,42,0.00,CLR,,0.00,WeatherDisplay:10.37,2013-02-02 01:57:00,
2013-02-01 20:02:00,60.6,38.0,30.20,SE,142,15.0,15.0,43,0.00,CLR,,0.00,WeatherDisplay:10.37,2013-02-02 02:02:00,
2013-02-01 20:07:00,60.4,38.4,30.21,SE,127,12.7,12.7,44,0.00,CLR,,0.00,WeatherDisplay:10.37,2013-02-02 02:07:00,
2013-02-01 20:12:00,60.2,38.8,30.20,SE,125,13.8,13.8,45,0.00,CLR,,0.00,WeatherDisplay:10.37,2013-02-02 02:12:00,
2013-02-01 20:17:00,60.0,39.1,30.20,SE,129,11.5,11.5,46,0.00,CLR,,0.00,WeatherDisplay:10.37,2013-02-02 02:17:00,
2013-02-01 20:22:00,59.8,39.5,30.20,SE,138,13.8,13.8,47,0.00,CLR,,0.00,WeatherDisplay:10.37,2013-02-02 02:22:00,
2013-02-01 20:27:00,59.6,39.9,30.21,ESE,102,11.5,11.5,48,0.00,CLR,,0.00,WeatherDisplay:10.37,2013-02-02 02:27:00,
2013-02-01 20:32:00,59.3,40.1,30.21,SE,134,11.5,11.5,49,0.00,CLR,,0.00,WeatherDisplay:10.37,2013-02-02 02:32:00,
2013-02-01 20:37:00,59.2,40.6,30.20,SE,139,11.5,11.5,50,0.00,CLR,,0.00,WeatherDisplay:10.37,2013-02-02 02:37:00,
2013-02-01 20:42:00,59.0,40.9,30.20,SE,144,11.5,11.5,51,0.00,CLR,,0.00,WeatherDisplay:10.37,2013-02-02 02:42:00,
2013-02-01 20:47:00,58.9,40.8,30.21,SE,124,13.8,13.8,51,0.00,CLR,,0.00,WeatherDisplay:10.37,2013-02-02 02:47:00,
2013-02-01 20:52:00,58.7,41.1,30.21,SSE,159,15.0,15.0,52,0.00,CLR,,0.00,WeatherDisplay:10.37,2013-02-02 02:52:00,
2013-02-01 20:57:00,58.6,41.5,30.21,SE,124,15.0,15.0,53,0.00,CLR,,0.00,WeatherDisplay:10.37,2013-02-02 02:57:00,
2013-02-01 21:02:00,58.4,41.3,30.21,SE,135,11.5,11.5,53,0.00,CLR,,0.00,WeatherDisplay:10.37,2013-02-02 03:02:00,
2013-02-01 21:07:00,58.1,41.5,30.22,SSE,150,10.4,10.4,54,0.00,CLR,,0.00,WeatherDisplay:10.37,2013-02-02 03:07:00,
2013-02-01 21:12:00,57.9,41.8,30.22,SE,139,11.5,11.5,55,0.00,CLR,,0.00,WeatherDisplay:10.37,2013-02-02 03:12:00,
2013-02-01 21:17:00,57.7,42.1,30.22,SE,138,13.8,13.8,56,0.00,CLR,,0.00,WeatherDisplay:10.37,2013-02-02 03:17:00,
2013-02-01 21:22:00,57.6,42.0,30.22,SE,146,11.5,11.5,56,0.00,CLR,,0.00,WeatherDisplay:10.37,2013-02-02 03:22:00,
2013-02-01 21:27:00,57.4,42.3,30.22,East,91,12.7,12.7,57,0.00,CLR,,0.00,WeatherDisplay:10.37,2013-02-02 03:27:00,
2013-02-01 21:32:00,57.3,42.6,30.22,SE,135,13.8,13.8,58,0.00,CLR,,0.00,WeatherDisplay:10.37,2013-02-02 03:32:00,
2013-02-01 21:37:00,57.1,42.5,30.23,SE,140,12.7,12.7,58,0.00,CLR,,0.00,WeatherDisplay:10.37,2013-02-02 03:37:00,
2013-02-01 21:42:00,57.0,42.8,30.22,SSE,148,11.5,11.5,59,0.00,CLR,,0.00,WeatherDisplay:10.37,2013-02-02 03:42:00,
2013-02-01 21:47:00,56.8,43.1,30.22,SSE,150,10.4,10.4,60,0.00,CLR,,0.00,WeatherDisplay:10.37,2013-02-02 03:47:00,
2013-02-01 21:52:00,56.7,43.0,30.23,SE,135,11.5,11.5,60,0.00,CLR,,0.00,WeatherDisplay:10.37,2013-02-02 03:52:00,
2013-02-01 21:57:00,56.5,43.2,30.23,SE,142,9.2,9.2,61,0.00,CLR,,0.00,WeatherDisplay:10.37,2013-02-02 03:57:00,
2013-02-01 22:02:00,56.3,43.0,30.22,ESE,117,11.5,11.5,61,0.00,CLR,,0.00,WeatherDisplay:10.37,2013-02-02 04:02:00,
2013-02-01 22:07:00,56.2,43.3,30.22,SE,141,9.2,9.2,62,0.00,CLR,,0.00,WeatherDisplay:10.37,2013-02-02 04:07:00,
2013-02-01 22:12:00,56.0,43.6,30.22,SSE,154,10.4,10.4,63,0.00,CLR,,0.00,WeatherDisplay:10.37,2013-02-02 04:12:00,
2013-02-01 22:17:00,55.9,43.5,30.22,SSE,163,6.9,6.9,63,0.00,CLR,,0.00,WeatherDisplay:10.37,2013-02-02 04:17:00,
2013-02-01 22:22:00,55.7,43.7,30.22,SE,143,9.2,9.2,64,0.00,CLR,,0.00,WeatherDisplay:10.37,2013-02-02 04:22:00,
2013-02-01 22:27:00,55.5,43.5,30.23,SE,131,8.1,8.1,64,0.00,CLR,,0.00,WeatherDisplay:10.37,2013-02-02 04:27:00,
2013-02-01 22:32:00,55.5,43.9,30.23,South,176,8.1,8.1,65,0.00,CLR,,0.00,WeatherDisplay:10.37,2013-02-02 04:32:00,
2013-02-01 22:37:00,55.3,43.7,30.23,ESE,112,4.6,4.6,65,0.00,CLR,,0.00,WeatherDisplay:10.37,2013-02-02 04:37:00,
2013-02-01 22:42:00,55.1,43.5,30.23,SE,142,5.8,5.8,65,0.00,CLR,,0.00,WeatherDisplay:10.37,2013-02-02 04:42:00,
2013-02-01 22:47:00,54.9,43.7,30.23,SSE,148,4.6,4.6,66,0.00,CLR,,0.00,WeatherDisplay:10.37,2013-02-02 04:47:00,
2013-02-01 22:52:00,54.8,43.7,30.23,ESE,122,5.0,5.0,66,0.00,CLR,,0.00,WeatherDisplay:10.37,2013-02-02 04:52:00,
2013-02-01 22:57:00,54.7,44.0,30.23,SE,130,4.6,4.6,67,0.00,CLR,,0.00,WeatherDisplay:10.37,2013-02-02 04:57:00,
2013-02-01 23:00:00,54.6,43.9,30.23,SSE,157,3.5,3.5,67,0.00,CLR,,0.00,WeatherDisplay:10.37,2013-02-02 05:00:00,
2013-02-01 23:05:00,54.3,43.6,30.23,SE,130,2.3,2.3,67,0.00,CLR,,0.00,WeatherDisplay:10.37,2013-02-02 05:05:00,
2013-02-01 23:10:00,54.2,43.9,30.23,SE,135,2.3,2.3,68,0.00,CLR,,0.00,WeatherDisplay:10.37,2013-02-02 05:10:00,
2013-02-01 23:15:00,54.0,44.1,30.23,SE,141,2.3,2.3,69,0.00,CLR,,0.00,WeatherDisplay:10.37,2013-02-02 05:15:00,
2013-02-01 23:20:00,53.8,43.9,30.22,SSE,154,0.0,0.0,69,0.00,CLR,,0.00,WeatherDisplay:10.37,2013-02-02 05:20:00,
2013-02-01 23:25:00,53.4,43.9,30.22,SSE,160,0.0,0.0,70,0.00,CLR,,0.00,WeatherDisplay:10.37,2013-02-02 05:25:00,
2013-02-01 23:30:00,53.2,43.7,30.22,SSW,201,0.0,0.0,70,0.00,CLR,,0.00,WeatherDisplay:10.37,2013-02-02 05:30:00,
2013-02-01 23:35:00,53.0,43.8,30.22,SSW,201,0.0,0.0,71,0.00,CLR,,0.00,WeatherDisplay:10.37,2013-02-02 05:35:00,
2013-02-01 23:41:00,52.8,43.7,30.22,SSW,201,0.0,0.0,71,0.00,CLR,,0.00,WeatherDisplay:10.37,2013-02-02 05:41:00,
2013-02-01 23:46:00,52.6,43.8,30.22,SSW,201,0.0,0.0,72,0.00,CLR,,0.00,WeatherDisplay:10.37,2013-02-02 05:46:00,
2013-02-01 23:51:00,52.4,43.6,30.22,SSE,150,1.1,1.1,72,0.00,CLR,,0.00,WeatherDisplay:10.37,2013-02-02 05:51:00,
2013-02-01 23:56:00,52.4,44.0,30.22,SW,215,1.1,1.1,73,0.00,CLR,,0.00,WeatherDisplay:10.37,2013-02-02 05:56:00,